Regional Weather Roundup
Issued by NWS Boston, MA

Home | Current Version | Previous Version | Text Only | Print | Product List | Glossary On
Versions: 1 2 3 4 5 6 7 8 9 10 11 12 13 14 15 16 17 18 19 20 21 22 23 24 25 26 27 28 29 30 31 32 33 34 35 36 37 38 39 40 41 42 43 44 45 46 47 48 49 50
000
ASUS41 KBOX 281610
RWRBOX

REGIONAL WEATHER ROUNDUP
NATIONAL WEATHER SERVICE TAUNTON MA
1100 AM EST SAT FEB 28 2015

NOTE:  "FAIR" INDICATES FEW OR NO CLOUDS BELOW 12,000 FEET WITH NO
SIGNIFICANT WEATHER AND/OR OBSTRUCTIONS TO VISIBILITY.  THE FOLLOWING
OBSERVATION LOCATIONS DO NOT REPORT PRESENT WEATHER...PROVINCETOWN...
SMITHFIELD...BLOCK ISLAND...KEENE...AND OXFORD.

MAZALL-281700-
EASTERN MASSACHUSETTS

CITY           SKY/WX    TMP DP  RH WIND       PRES   REMARKS
BOSTON         SUNNY     22   1  40 NW7       30.75S WCI  13
BEVERLY        SUNNY     21  -3  35 NW9       30.73S WCI  11
LAWRENCE       SUNNY     20   1  43 N6        30.75S WCI  12
BEDFORD        SUNNY     21  -2  36 NW5       30.73S WCI  15
BLUE HILL        N/A     20  -1  40 VRB6      30.68S WCI  12
NORWOOD        SUNNY     22  -2  35 W6        30.75S WCI  14
MARSHFIELD     SUNNY     27   1  33 NW3       30.76S
PLYMOUTH       SUNNY     21  -2  36 W3        30.74S
TAUNTON        SUNNY     23  -1  35 CALM      30.74S
NEW BEDFORD    SUNNY     22  -2  35 SW5       30.74S WCI  16
$$

MAZALL-281700-
CAPE COD AND THE ISLANDS

CITY           SKY/WX    TMP DP  RH WIND       PRES   REMARKS
FALMOUTH       SUNNY     23   0  36 W3        30.73S
HYANNIS        SUNNY     23  10  57 NW8       30.73R WCI  14
CHATHAM        SUNNY     26   9  48 VRB3      30.74R
PROVINCETOWN   SUNNY     21   9  58 NW8       30.75R WCI  12
NANTUCKET      SUNNY     26  14  60 N7        30.74R WCI  18
MARTHAS VNYRD  SUNNY     22  -5  30 NW5       30.75R WCI  16
$$

MAZALL-281700-
CENTRAL AND WESTERN MASSACHUSETTS

CITY           SKY/WX    TMP DP  RH WIND       PRES   REMARKS
WORCESTER      SUNNY     19  -1  41 W7        30.66S WCI  10
FITCHBURG      SUNNY     22  -3  33 W7        30.73S WCI  13
ORANGE         SUNNY     19  -1  41 CALM      30.72S
SPRINGFIELD    SUNNY     17  -1  45 S2        30.75F
WESTFIELD      SUNNY     22  -1  36 CALM      30.75F
NORTH ADAMS    SUNNY     15   0  51 W6        30.75S WCI   6
PITTSFIELD     SUNNY     12   1  61 W8        30.68S WCI   0
$$

RIZALL-281700-
RHODE ISLAND

CITY           SKY/WX    TMP DP  RH WIND       PRES   REMARKS
PROVIDENCE     MOSUNNY   23  -1  35 NW3       30.75F
NEWPORT        SUNNY     20   1  43 N7        30.75R WCI  11
BLOCK ISLAND   SUNNY     21   3  45 NE3       30.75R
SMITHFIELD     SUNNY     19   0  42 N6        30.70F WCI  11
WESTERLY       SUNNY     22  -1  36 CALM      30.77R
$$

CTZALL-281700-
CONNECTICUT

CITY           SKY/WX    TMP DP  RH WIND       PRES   REMARKS
BRADLEY INTL   MOSUNNY   20   2  45 S3        30.76F
HARTFORD       SUNNY     20   0  41 SW6       30.79F WCI  12
BRIDGEPORT     SUNNY     22   4  46 NW7       30.81R WCI  13
DANBURY        SUNNY     19  -1  41 VRB5      30.78S WCI  12
GROTON         SUNNY     21   4  47 W6        30.77S WCI  13
NEW HAVEN      SUNNY     21   3  45 VRB6      30.79S WCI  13
CHESTER        FAIR      21   1  42 N7        30.75S WCI  13
MERIDEN        SUNNY     21   1  41 N5        30.78F WCI  15
WILLIMANTIC    SUNNY     22   0  38 CALM      30.76S
OXFORD         MOSUNNY   10  -2  56 N9        30.74S WCI  -2
$$

MEZ002-015-021-024-NHZ003-005-008-011-012-014-VTZ005-008-281700-
NORTHERN NEW ENGLAND

CITY           SKY/WX    TMP DP  RH WIND       PRES   REMARKS
PORTLAND ME    SUNNY     22  -4  32 VRB6      30.71S WCI  14
BANGOR ME      SUNNY     20  -5  33 SW8       30.65F WCI  10
CONCORD NH     SUNNY     21  -1  38 CALM      30.71F
MANCHESTER NH  SUNNY     21   1  41 N3        30.71S
NASHUA NH      SUNNY     21  -1  38 NW7       30.74S WCI  12
PORTSMOUTH NH  SUNNY     20  -3  36 NE1       30.71S
JAFFREY NH     SUNNY     18   0  45 CALM      30.66S
KEENE NH       SUNNY     19   1  45 CALM      30.73S
BURLINGTON VT  SUNNY     15   0  51 S9        30.75S WCI   3
MT. WASHINGTON MOSUNNY    1 -15  46 NW30        N/A  WCI -24
$$

NYZ052-076-281700-
EASTERN NEW YORK

CITY           SKY/WX    TMP DP  RH WIND       PRES   REMARKS
ALBANY         MOSUNNY   18   3  52 W9        30.80F WCI   7
NEW YORK CITY  MOSUNNY   21   0  39 N3        30.82S
$$

ANZALL-281700-
MARINE OBSERVATIONS

STATION/POSITION TIME  TEMP    WIND        PRES    VSBY  WAVE
                       AIR SEA DIR/SP/G                  HT/PER
                 (UTC) (F)     (DEG/KT/KT) (MB)    (MI)  (FT/S)
BOSTON BUOY      1550   19 37  300/  8/ 10 1041.3R         2/10
BUZZARDS BAY     1600          350/  2/  3 1042.1R
NANTUCKET SOUND  1550   23 33  340/  6/  8 1041.3R         1/ 9
MASS BAY-STELLWA 1504   18 36  280/  8/ 10   N/A    1 3/4  3/11
ISLE OF SHOALS   1600   20     300/  5/  6 1039.9R
S OF BLOCK IS    NOT AVBL
$$

......................KEY.........................
  SKY/WX - SKY CONDITION/PRESENT WEATHER
  TMP    - TEMPERATURE IN FAHRENHEIT
  DWPT   - DEWPOINT IN FAHRENHEIT
  RH     - RELATIVE HUMIDITY IN PERCENT
  WIND   - DIRECTION AND SPEED IN MPH
  PRES   - MEAN SEA LEVEL PRESSURE IN INCHES OF HG
  WCI    - WIND CHILL INDEX
  VSB    - VISIBILITY IN MILES
  HX     - HEAT INDEX
  TC     - TEMPERATURE IN CELSIUS
  VRB    - VARIABLE WIND DIRECTION
  N/A    - NOT AVAILABLE



USA.gov is the U.S. government's official web portal to all federal, state and local government web resources and services.